Hourly Weather Alihe

Today, 2 March, Tuesday

Time Temperature Precipitation Wind Pressure Humidity
00:00 -22°C° 0 mm 0 mps 722 mmHg 87%
01:00 -23°C° 0 mm 0 mps 721 mmHg 88%
02:00 -24°C° 0 mm 0 mps 722 mmHg 88%
03:00 -24°C° 0 mm 0 mps 721 mmHg 88%
04:00 -25°C° 0 mm 0 mps 721 mmHg 89%
05:00 -25°C° 0 mm 0 mps 721 mmHg 90%
06:00 -24°C° 0 mm 0 mps 721 mmHg 87%
07:00 -23°C° 0 mm 0 mps 721 mmHg 85%
08:00 -21°C° 0 mm 0 mps 721 mmHg 79%
09:00 -19°C° 0 mm 0 mps 720 mmHg 73%
10:00 -17°C° 0 mm 1 mps 720 mmHg 68%
11:00 -14°C° 0 mm 1 mps 719 mmHg 62%
12:00 -14°C° 0 mm 1 mps 719 mmHg 65%
13:00 -15°C° 0 mm 2 mps 718 mmHg 68%
14:00 -15°C° 0 mm 2 mps 717 mmHg 71%
15:00 -15°C° 0.1 mm 2 mps 717 mmHg 79%
16:00 -15°C° 0.1 mm 2 mps 716 mmHg 86%
17:00 -16°C° 0.1 mm 2 mps 716 mmHg 94%
18:00 -15°C° 0 mm 1 mps 716 mmHg 95%
19:00 -16°C° 0 mm 1 mps 716 mmHg 96%
20:00 -17°C° 0 mm 1 mps 716 mmHg 98%
21:00 -17°C° 0 mm 1 mps 716 mmHg 98%
22:00 -17°C° 0 mm 0 mps 715 mmHg 98%
23:00 -18°C° 0 mm 0 mps 715 mmHg 98%

Tomorrow, 3 March, Wednesday

Time Temperature Precipitation Wind Pressure Humidity
00:00 -19°C° 0 mm 0 mps 714 mmHg 99%
01:00 -20°C° 0 mm 0 mps 714 mmHg 99%
02:00 -20°C° 0 mm 0 mps 713 mmHg 99%
03:00 -20°C° 0 mm 0 mps 713 mmHg 99%
04:00 -20°C° 0 mm 0 mps 713 mmHg 99%
05:00 -20°C° 0 mm 0 mps 713 mmHg 99%
06:00 -19°C° 0 mm 0 mps 713 mmHg 96%
07:00 -18°C° 0 mm 0 mps 712 mmHg 94%
08:00 -17°C° 0 mm 0 mps 712 mmHg 91%
09:00 -14°C° 0 mm 0 mps 712 mmHg 85%
10:00 -12°C° 0 mm 0 mps 712 mmHg 78%
11:00 -9°C° 0 mm 1 mps 711 mmHg 71%
12:00 -8°C° 0 mm 1 mps 711 mmHg 74%
13:00 -7°C° 0 mm 1 mps 710 mmHg 77%
14:00 -7°C° 0 mm 1 mps 710 mmHg 80%
15:00 -7°C° 0 mm 1 mps 710 mmHg 84%
16:00 -8°C° 0 mm 1 mps 709 mmHg 88%
17:00 -9°C° 0 mm 1 mps 709 mmHg 92%
18:00 -10°C° 0 mm 1 mps 709 mmHg 93%
19:00 -11°C° 0 mm 1 mps 710 mmHg 95%
20:00 -12°C° 0 mm 1 mps 710 mmHg 97%
21:00 -13°C° 0 mm 0 mps 710 mmHg 97%
22:00 -13°C° 0 mm 0 mps 710 mmHg 97%
23:00 -13°C° 0 mm 0 mps 710 mmHg 97%

Day after tomorrow, 4 March, Thursday

Time Temperature Precipitation Wind Pressure Humidity
00:00 -14°C° 0 mm 0 mps 710 mmHg 96%
01:00 -14°C° 0 mm 0 mps 710 mmHg 96%
02:00 -15°C° 0 mm 0 mps 710 mmHg 96%
03:00 -15°C° 0 mm 0 mps 710 mmHg 96%
04:00 -15°C° 0 mm 0 mps 710 mmHg 96%
05:00 -15°C° 0 mm 0 mps 710 mmHg 95%
06:00 -14°C° 0 mm 0 mps 710 mmHg 94%
07:00 -14°C° 0 mm 0 mps 711 mmHg 92%
08:00 -13°C° 0 mm 0 mps 711 mmHg 90%
09:00 -11°C° 0 mm 1 mps 711 mmHg 83%
10:00 -10°C° 0 mm 2 mps 712 mmHg 76%
11:00 -9°C° 0 mm 3 mps 712 mmHg 69%
12:00 -9°C° 0 mm 3 mps 712 mmHg 65%
13:00 -10°C° 0 mm 4 mps 712 mmHg 62%
14:00 -9°C° 0 mm 4 mps 713 mmHg 58%
15:00 -11°C° 0.1 mm 4 mps 713 mmHg 65%
16:00 -12°C° 0.1 mm 3 mps 714 mmHg 73%
17:00 -14°C° 0.1 mm 3 mps 715 mmHg 80%
18:00 -15°C° 0.2 mm 3 mps 716 mmHg 83%
19:00 -16°C° 0.2 mm 2 mps 717 mmHg 86%
20:00 -18°C° 0.2 mm 2 mps 718 mmHg 89%
21:00 -20°C° 0 mm 2 mps 719 mmHg 88%
22:00 -21°C° 0 mm 2 mps 720 mmHg 88%
23:00 -24°C° 0 mm 2 mps 721 mmHg 87%

5 March, Friday

Time Temperature Precipitation Wind Pressure Humidity
00:00 -25°C° 0 mm 2 mps 721 mmHg 88%
01:00 -26°C° 0 mm 2 mps 722 mmHg 88%
02:00 -28°C° 0 mm 2 mps 723 mmHg 89%
03:00 -28°C° 0 mm 2 mps 723 mmHg 87%
04:00 -29°C° 0 mm 2 mps 724 mmHg 86%
05:00 -29°C° 0 mm 2 mps 725 mmHg 84%
06:00 -30°C° 0 mm 3 mps 725 mmHg 77%
07:00 -30°C° 0 mm 4 mps 726 mmHg 70%
08:00 -30°C° 0 mm 4 mps 727 mmHg 63%
09:00 -28°C° 0 mm 5 mps 727 mmHg 61%
10:00 -26°C° 0 mm 5 mps 727 mmHg 59%
11:00 -24°C° 0 mm 5 mps 727 mmHg 57%
12:00 -22°C° 0 mm 5 mps 727 mmHg 57%
13:00 -21°C° 0 mm 5 mps 728 mmHg 57%
14:00 -20°C° 0 mm 5 mps 728 mmHg 57%
15:00 -20°C° 0 mm 4 mps 728 mmHg 62%
16:00 -20°C° 0 mm 4 mps 728 mmHg 66%
17:00 -19°C° 0 mm 3 mps 728 mmHg 70%
18:00 -22°C° 0 mm 3 mps 728 mmHg 75%
19:00 -21°C° 0 mm 2 mps 729 mmHg 80%
20:00 -24°C° 0 mm 2 mps 730 mmHg 85%
21:00 -25°C° 0 mm 2 mps 730 mmHg 86%
22:00 -26°C° 0 mm 2 mps 730 mmHg 87%
23:00 -24°C° 0 mm 1 mps 730 mmHg 88%

6 March, Saturday

Time Temperature Precipitation Wind Pressure Humidity
00:00 -24°C° 0 mm 1 mps 729 mmHg 87%
01:00 -25°C° 0 mm 1 mps 729 mmHg 87%
02:00 -27°C° 0 mm 1 mps 729 mmHg 87%
03:00 -27°C° 0 mm 1 mps 729 mmHg 87%
04:00 -27°C° 0 mm 1 mps 728 mmHg 87%
05:00 -28°C° 0 mm 1 mps 728 mmHg 87%
06:00 -25°C° 0 mm 1 mps 728 mmHg 84%
07:00 -24°C° 0 mm 1 mps 728 mmHg 82%
08:00 -23°C° 0 mm 1 mps 728 mmHg 79%
09:00 -20°C° 0 mm 1 mps 727 mmHg 74%
10:00 -17°C° 0 mm 1 mps 727 mmHg 69%
11:00 -16°C° 0 mm 2 mps 727 mmHg 64%
12:00 -15°C° 0 mm 2 mps 726 mmHg 64%
13:00 -13°C° 0 mm 2 mps 726 mmHg 65%
14:00 -10°C° 0 mm 1 mps 726 mmHg 65%
15:00 -10°C° 0 mm 1 mps 725 mmHg 71%
16:00 -11°C° 0 mm 1 mps 725 mmHg 76%
17:00 -12°C° 0 mm 1 mps 724 mmHg 82%
18:00 -13°C° 0 mm 1 mps 724 mmHg 84%
19:00 -15°C° 0 mm 1 mps 725 mmHg 87%
20:00 -16°C° 0 mm 1 mps 725 mmHg 89%
21:00 -17°C° 0 mm 1 mps 724 mmHg 91%
22:00 -17°C° 0 mm 0 mps 724 mmHg 92%
23:00 -18°C° 0 mm 0 mps 723 mmHg 94%

7 March, Sunday

Time Temperature Precipitation Wind Pressure Humidity
00:00 -18°C° 0 mm 0 mps 723 mmHg 94%
01:00 -18°C° 0 mm 0 mps 723 mmHg 94%
02:00 -19°C° 0 mm 0 mps 722 mmHg 94%
03:00 -19°C° 0 mm 0 mps 722 mmHg 94%
04:00 -19°C° 0 mm 0 mps 721 mmHg 94%
05:00 -19°C° 0 mm 0 mps 721 mmHg 94%
06:00 -18°C° 0 mm 0 mps 721 mmHg 91%
07:00 -16°C° 0 mm 0 mps 721 mmHg 88%
08:00 -15°C° 0 mm 0 mps 721 mmHg 85%
09:00 -13°C° 0 mm 1 mps 721 mmHg 80%
10:00 -11°C° 0 mm 1 mps 721 mmHg 75%
11:00 -9°C° 0 mm 2 mps 721 mmHg 70%
12:00 -8°C° 0 mm 2 mps 721 mmHg 69%
13:00 -7°C° 0 mm 2 mps 721 mmHg 69%
14:00 -6°C° 0 mm 2 mps 721 mmHg 68%
15:00 -6°C° 0 mm 2 mps 721 mmHg 73%
16:00 -6°C° 0 mm 1 mps 721 mmHg 78%
17:00 -7°C° 0 mm 1 mps 721 mmHg 83%
18:00 -8°C° 0 mm 1 mps 722 mmHg 85%
19:00 -10°C° 0 mm 1 mps 722 mmHg 87%
20:00 -11°C° 0 mm 1 mps 723 mmHg 89%
21:00 -12°C° 0 mm 1 mps 723 mmHg 89%
22:00 -13°C° 0 mm 1 mps 723 mmHg 90%
23:00 -14°C° 0 mm 1 mps 723 mmHg 90%
Show more